Regional Weather Roundup
Issued by NWS

Home | Current Version | Previous Version | Graphics & Text | Print | Product List | Glossary On
Versions: 1 2 3 4 5 6 7 8 9 10 11 12 13 14 15 16 17 18 19 20 21 22 23 24 25 26 27 28 29 30 31 32 33 34 35 36 37 38 39 40 41 42 43 44 45 46 47 48 49 50
324
ASUS43 KDMX 030603
RWRIA

WEATHER ROUNDUP FOR IOWA
NATIONAL WEATHER SERVICE DES MOINES IA
100 AM CDT TUE MAY 03 2016

NOTE: "FAIR" INDICATES FEW OR NO CLOUDS BELOW 12,000 FEET WITH NO
SIGNIFICANT WEATHER AND/OR OBSTRUCTIONS TO VISIBILITY.

* - THESE STATIONS ARE NOT NWS STATIONS...THUS NOT UNDER NWS
QUALITY CONTROL.  THEY ALSO DO NOT REPORT WEATHER SUCH
AS PRECIPITATION OR FOG.

IAZ001>003-012>014-020>022-031>034-043>046-030700-
   NORTHWEST IOWA

CITY           SKY/WX    TMP DP  RH WIND       PRES   REMARKS
CARROLL *      PTCLDY    45  43  93 W6        30.04F
CHEROKEE *     CLEAR     40  40  99 CALM      30.04S
DENISON *      CLEAR     43  39  87 CALM      30.04R
LE MARS *      CLEAR     43  41  93 CALM      30.06R
ORANGE CITY *  CLEAR     48  39  71 CALM      30.05R
SHELDON *      CLEAR     41  41 100 CALM      30.03S
SIOUX CITY     PTCLDY    45  42  89 CALM      30.05R
6HR MIN TEMP:  45; 6HR MAX TEMP:  65;

SPENCER        CLEAR     43  40  89 W3        30.03F
6HR MIN TEMP:  43; 6HR MAX TEMP:  61;

STORM LAKE *   CLEAR     54  34  47 W6        30.05S
$$

IAZ055>058-069>071-079>083-090>094-030700-
   SOUTHWEST IOWA

CITY           SKY/WX    TMP DP  RH WIND       PRES   REMARKS
ATLANTIC *     CLEAR     43  43 100 CALM      30.06R
AUDUBON *      PTCLDY    39  37  93 CALM      30.06S
CLARINDA *       N/A    N/A N/A N/A MISG        N/A
COUNCIL BLFS * CLOUDY    50  41  71 SE3       30.05S
CRESTON *      CLEAR     46  41  81 S3        30.07S
HARLAN  *      CLEAR     43  43 100 CALM      30.09S
LAMONI         CLEAR     44  42  93 W3        30.06R
6HR MIN TEMP:  43; 6HR MAX TEMP:  59;

SHENANDOAH *   PTCLDY    46  46 100 CALM      30.07R
$$

IAZ047>049-059>061-072>074-084-030700-
   CENTRAL IOWA

CITY           SKY/WX    TMP DP  RH WIND       PRES   REMARKS
AMES           CLEAR     42  40  92 CALM      30.04F
6HR MIN TEMP:  41; 6HR MAX TEMP:  59;

ANKENY *       FOG       41  41 100 CALM      30.05S VSB 1/4
BOONE *        CLEAR     48  43  81 CALM      30.04S
CHARITON *     CLEAR     45  45 100 SW3       30.05S
DES MOINES     PTCLDY    48  40  73 CALM      30.05S
6HR MIN TEMP:  47; 6HR MAX TEMP:  60;

GRINNELL*      CLEAR     45  42  90 SW3       30.05S
KNOXVILLE *    CLEAR     48  43  81 SW5       30.04S
MARSHALLTOWN   CLEAR     44  41  89 SW5       30.04S
6HR MIN TEMP:  44; 6HR MAX TEMP:  60;

NEWTON *       CLEAR     46  46 100 W5        30.05S
PELLA *        CLEAR     43  41  93 CALM      30.06S
$$

IAZ004>006-015-016-023>025-035-036-030700-
   NORTH CENTRAL IOWA

CITY           SKY/WX    TMP DP  RH WIND       PRES   REMARKS
ALGONA *       CLEAR     48  43  81 SW8       30.03F
CLARION *      CLEAR     45  41  87 S6        30.04S
ESTHERVILLE    CLEAR     45  39  79 SW7       30.02F
6HR MIN TEMP:  45; 6HR MAX TEMP:  61;

FORT DODGE *   CLEAR     45  37  76 CALM      30.05S
MASON CITY     CLEAR     47  39  74 SW6       30.04F
6HR MIN TEMP:  43; 6HR MAX TEMP:  60;

FOREST CITY *    N/A     39  39 100 SE3       30.03F FOG
WEBSTER CITY * CLEAR     45  43  93 S9        30.03S
IOWA FALLS *     N/A     45  42  88 SW8       30.05S
$$

IAZ007>011-017>019-026>030-037>042-050>054-066-030700-
   NORTHEAST IOWA

CITY           SKY/WX    TMP DP  RH WIND       PRES   REMARKS
CEDAR RAPIDS   CLEAR     46  42  86 W5        30.02F
6HR MIN TEMP:  43; 6HR MAX TEMP:  57;

CHARLES CITY * CLEAR     48  41  76 SW6       30.03S
CLINTON *      PTCLDY    46  42  86 NW5       30.02F
DECORAH *      CLEAR     48  39  71 CALM      30.00F
DUBUQUE        CLEAR     45  39  79 S3        30.01F
6HR MIN TEMP:  45; 6HR MAX TEMP:  58;

MONTICELLO *   CLEAR     41  41 100 CALM      30.02S
OELWEIN *      CLEAR     46  41  81 W8        30.03F
WATERLOO       CLEAR     44  39  82 CALM      30.03S
6HR MIN TEMP:  41; 6HR MAX TEMP:  59;

$$

IAZ064-065-067-068-078-030700-
   EAST CENTRAL IOWA

CITY           SKY/WX    TMP DP  RH WIND       PRES   REMARKS
DAVENPORT      CLEAR     45  42  89 W5        30.03S
6HR MIN TEMP:  45; 6HR MAX TEMP:  57;

IOWA CITY      PTCLDY    46  42  86 CALM      30.04F
6HR MIN TEMP:  45; 6HR MAX TEMP:  55;

MT. PLEASANT * CLOUDY    54  46  76 NW6       30.04S
MUSCATINE *    CLEAR     48  43  81 W5        30.03F
QUAD CITIES    CLEAR     45  42  89 CALM      30.02S
6HR MIN TEMP:  43; 6HR MAX TEMP:  58;

$$

IAZ062-063-075>077-085>089-095>099-030700-
   SOUTHEAST IOWA

CITY           SKY/WX    TMP DP  RH WIND       PRES   REMARKS
BURLINGTON     CLOUDY    51  47  86 NW5       30.03S
6HR MIN TEMP:  51; 6HR MAX TEMP:  57;

FAIRFIELD *    CLOUDY    48  45  87 W6        30.04S
FORT MADISON * CLOUDY    50  46  87 NW5       30.04S
KEOKUK *       CLOUDY    50  48  93 CALM      30.03S
OSKALOOSA *      N/A     45  43  93 W5        30.05S
OTTUMWA        CLEAR     42  42 100 W5        30.05S
6HR MIN TEMP:  40; 6HR MAX TEMP:  54;

WASHINGTON *   CLOUDY    46  46 100 W6        30.05S
$$

ABBREVIATIONS USED IN REMARKS
   TC - TEMPERATURES IN CELSIUS
  WCI - WIND CHILL INDEX
   HX - HEAT INDEX
  VSB - VISIBILITY
$$





USA.gov is the U.S. government's official web portal to all federal, state and local government web resources and services.